{"data":{"norad_id":66387,"epoch":"2026-05-25T04:47:03.382944Z","epoch_age_seconds":48065,"freshness":"FRESH","line1":"1 66387U 25257H   26145.19934471  .00016446  00000+0  49665-3 0  9990","line2":"2 66387  53.1586 220.5012 0001289  75.2584 284.8562 15.34409356 31462","mean_motion":15.34409356,"eccentricity":0.0001289,"inclination_deg":53.1586,"raan_deg":220.5012,"arg_perigee_deg":75.2584,"mean_anomaly_deg":284.8562,"bstar":0.00049665,"rev_number":3146,"period_min":93.847185848364,"perigee_km":461.79365162219,"apogee_km":463.55721306725,"semimajor_km":6840.8124323447,"source":"CELESTRAK","updated_at":"2026-05-25T13:38:21.201439Z"}}